GW2838 Weather Reports


time (UTC)temp
C
wind
direction
speed
KPH
gust
KPH
rain 1hr
cm
rain 24hr
cm
rain mn
cm
humidity
%
barometer
mb
20260505035025 18 200 3.2 9.7 0.00 0.00 0.00 50 1033.5
20260505034021 18 213 4.8 11.3 0.00 0.00 0.00 49 1033.4
20260505033018 18 204 3.2 9.7 0.00 0.00 0.00 49 1033.4
20260505032033 19 207 4.8 11.3 0.00 0.00 0.00 48 1033.3
20260505031029 19 203 4.8 11.3 0.00 0.00 0.00 48 1033.4
20260505030025 19 206 4.8 11.3 0.00 0.00 0.00 47 1033.3
20260505025021 19 209 4.8 11.3 0.00 0.00 0.00 47 1033.3
20260505024036 19 209 4.8 11.3 0.00 0.00 0.00 46 1033.5
20260505023032 20 196 3.2 9.7 0.00 0.00 0.00 46 1033.2
20260505022028 20 206 4.8 11.3 0.00 0.00 0.00 46 1033.3
20260505021024 20 191 6.4 14.5 0.00 0.00 0.00 46 1033.1
20260505020021 20 213 4.8 17.7 0.00 0.00 0.00 45 1033.2
20260505015016 20 202 6.4 12.9 0.00 0.00 0.00 45 1033.1
20260505014032 20 188 6.4 14.5 0.00 0.00 0.00 44 1032.9
20260505013028 20 198 4.8 9.7 0.00 0.00 0.00 44 1032.9
20260505012024 20 191 4.8 11.3 0.00 0.00 0.00 43 1032.7
20260505011021 21 192 4.8 12.9 0.00 0.00 0.00 43 1032.8
20260505010016 21 186 6.4 12.9 0.00 0.00 0.00 42 1032.7
20260505005033 21 190 6.4 12.9 0.00 0.00 0.00 42 1032.6
20260505004028 22 174 3.2 9.7 0.00 0.00 0.00 41 1032.4
20260505003025 22 198 4.8 9.7 0.00 0.00 0.00 40 1032.5
20260505002021 22 195 6.4 12.9 0.00 0.00 0.00 40 1032.5
20260505001017 22 192 4.8 11.3 0.00 0.00 0.00 39 1032.4
20260505000033 22 201 9.7 17.7 0.00 0.00 0.00 39 1032.4
20260504235029 22 196 8.0 20.9 0.00 0.00 0.00 38 1032.3
20260504234025 22 193 9.7 20.9 0.00 0.00 0.00 38 1032.2
20260504233022 22 193 9.7 17.7 0.00 0.00 0.00 37 1032.2
20260504232018 23 195 9.7 20.9 0.00 0.00 0.00 37 1032.1
20260504231034 23 207 9.7 33.8 0.00 0.00 0.00 37 1032.1
20260504230030 23 226 11.3 22.5 0.00 0.00 0.00 36 1032.1
20260504225026 23 184 9.7 20.9 0.00 0.00 0.00 36 1032.2
20260504224022 23 191 12.9 30.6 0.00 0.00 0.00 35 1032.2
20260504223058 23 208 8.0 17.7 0.00 0.00 0.00 34 1032.1
20260504222115 24 214 12.9 29.0 0.00 0.00 0.00 35 1032.1
20260504221030 24 224 19.3 43.5 0.00 0.00 0.00 34 1032.2
20260504220026 24 205 14.5 29.0 0.00 0.00 0.00 33 1032.1
20260504215022 24 196 11.3 24.1 0.00 0.00 0.00 33 1032.1
20260504214058 24 196 12.9 30.6 0.00 0.00 0.00 33 1032.0
20260504213035 24 213 9.7 20.9 0.00 0.00 0.00 33 1032.0
20260504212031 25 196 14.5 30.6 0.00 0.00 0.00 33 1032.0
20260504211027 25 191 12.9 24.1 0.00 0.00 0.00 33 1032.0
20260504210043 24 204 11.3 27.4 0.00 0.00 0.00 33 1032.1
20260504205039 24 228 9.7 25.7 0.00 0.00 0.00 33 1032.1
20260504204035 24 198 8.0 17.7 0.00 0.00 0.00 34 1032.1
20260504203031 24 173 12.9 29.0 0.00 0.00 0.00 34 1032.4
20260504202028 24 198 9.7 25.7 0.00 0.00 0.00 33 1032.5
20260504201023 23 195 11.3 20.9 0.00 0.00 0.00 33 1032.7
20260504200019 23 223 11.3 27.4 0.00 0.00 0.00 34 1032.8
20260504195035 23 181 17.7 38.6 0.00 0.00 0.00 33 1032.9
20260504194031 23 213 11.3 24.1 0.00 0.00 0.00 34 1033.0
20260504193107 23 231 11.3 25.7 0.00 0.00 0.00 34 1033.2
20260504192024 23 226 11.3 30.6 0.00 0.00 0.00 34 1033.5
20260504191019 23 217 9.7 22.5 0.00 0.00 0.00 35 1033.7
20260504190016 23 188 12.9 20.9 0.00 0.00 0.00 35 1033.8
20260504185032 23 214 8.0 17.7 0.00 0.00 0.00 35 1033.8
20260504184028 23 198 8.0 25.7 0.00 0.00 0.00 36 1034.0
20260504183024 23 184 9.7 20.9 0.00 0.00 0.00 36 1034.1
20260504182020 23 220 12.9 24.1 0.00 0.00 0.00 36 1034.4
20260504181016 23 181 11.3 27.4 0.00 0.00 0.00 36 1034.5
20260504180033 22 207 8.0 25.7 0.00 0.00 0.00 36 1034.6
20260504175048 23 211 8.0 25.7 0.00 0.00 0.00 36 1034.7
20260504174044 22 197 8.0 22.5 0.00 0.00 0.00 37 1034.7
20260504173020 22 189 11.3 27.4 0.00 0.00 0.00 36 1034.8
20260504172056 22 203 8.0 20.9 0.00 0.00 0.00 36 1035.1
20260504171033 22 228 8.0 20.9 0.00 0.00 0.00 36 1035.3
20260504151022 20 219 4.8 11.3 0.00 0.00 0.00 37 1036.4
20260504141019 21 204 4.8 11.3 0.00 0.00 0.00 38 1036.7
20260504081016 8 0.0 0.0 0.00 0.00 0.00 73 1038.1
20260504050019 7 0.0 0.0 0.00 0.00 0.00 69 1038.3
20260504045035 7 0.0 0.0 0.00 0.00 0.00 68 1038.4
20260504044032 7 0.0 0.0 0.00 0.00 0.00 67 1038.3
20260504043026 7 0.0 0.0 0.00 0.00 0.00 67 1038.4
20260504042022 7 0.0 0.0 0.00 0.00 0.00 67 1038.3
20260504041018 7 0.0 0.0 0.00 0.00 0.00 67 1038.3
20260504040034 7 0.0 0.0 0.00 0.00 0.00 65 1038.4